Hourly Data Report for September 11, 2005

TORONTO CITY
ONTARIO

43°40'00.000" N
79°24'00.000" W
112.50 m
6158355
71508
XTO

Download Data

Hourly Data (September 2005)
Hourly Data Report for September 11, 2005
TIME
LST
Temp Definition
°C
Dew Point Definition
°C
Rel Hum Definition
%
Precip. Amount Definition
mm

Wind Dir Definition
10's deg

Wind Spd Definition
km/h
Visibility Definition
km
Stn Press Definition
kPa
Hmdx Definition


Wind Chill Definition


Weather Definition


00:00 17.4 12.2 72   LegendMM LegendMM   101.17     LegendNANA
01:00 17.0 12.5 75   LegendMM LegendMM   101.19     LegendNANA
02:00 16.6 12.7 78   LegendMM LegendMM   101.17     LegendNANA
03:00 16.0 12.7 81   LegendMM LegendMM   101.18     LegendNANA
04:00 15.5 12.3 81   LegendMM LegendMM   101.20     LegendNANA
05:00 15.2 12.4 83   LegendMM LegendMM   101.23     LegendNANA
06:00 15.4 13.0 86   LegendMM LegendMM   101.27     LegendNANA
07:00 16.0 13.9 87   LegendMM LegendMM   101.28     LegendNANA
08:00 18.8 14.7 77   LegendMM LegendMM   101.31     LegendNANA
09:00 20.2 13.1 64   LegendMM LegendMM   101.29     LegendNANA
10:00 21.5 12.9 58   LegendMM LegendMM   101.29     LegendNANA
11:00 22.9 12.9 53   LegendMM LegendMM   101.25 26   LegendNANA
12:00 24.0 11.8 46   LegendMM LegendMM   101.19 26   LegendNANA
13:00 24.7 11.3 43   LegendMM LegendMM   101.10 27   LegendNANA
14:00 25.1 13.4 48   LegendMM LegendMM   101.03 28   LegendNANA
15:00 25.1 14.9 53   LegendMM LegendMM   100.95 29   LegendNANA
16:00 24.3 16.0 60   LegendMM LegendMM   100.87 29   LegendNANA
17:00 23.7 16.2 63   LegendMM LegendMM   100.81 28   LegendNANA
18:00 22.5 16.5 69   LegendMM LegendMM   100.81 27   LegendNANA
19:00 21.7 16.6 73   LegendMM LegendMM   100.77 27   LegendNANA
20:00 21.2 17.5 79   LegendMM LegendMM   100.78 27   LegendNANA
21:00 21.2 17.9 81   LegendMM LegendMM   100.75 27   LegendNANA
22:00 20.9 15.8 73   LegendMM LegendMM   100.74 25   LegendNANA
23:00 19.8 13.4 67   LegendMM LegendMM   100.73     LegendNANA

Notes on Data Quality.

Legend

  • E = Estimated
  • M = Missing
  • NA = Not Available*
  • [empty] = Indicates an unobserved value
Date modified: